Погода в Самаре

Россия / Самарская область     53°11′43″N   50°06′06″E
темп.,
°C
ветер,
м/с
пор.,
м/с
влажн.,
%
обл.,
%
осадки,
мм/ч
давл.,
гПа
погр.,
м
22 апреля, чт
чт2201:00+4ююв41194100 2.2 1024660
04:00+5ююв41095100 4.3 1025568
07:00+5ююв3986100 0.1 1025480
10:00+7ююв377299 0.1 1025473
13:00+10ююв365598 0.0 1025733
16:00+12ююв5649100 0.0 10251068
19:00+9ююв4760100 0.0 1025614
22:00+6ююв38815 0.0 1026374
23 апреля, пт
пт2301:00+5юв269212 0.0 1026232
04:00+4юв24931 0.0 1026107
07:00+5вюв24917 0.0 1027167
10:00+9в3469100 0.0 1026561
13:00+13в3456100 0.0 1024926
16:00+14в4552100 0.0 10221357
19:00+13в2652100 0.0 1021419
22:00+10юв2567100 0.0 1020341
24 апреля, сб
сб2401:00+9вюв1281100 0.1 1018132
04:00+7в3589100 2.0 1016434
07:00+7всв2386100 1.4 1015335
10:00+7сз1184100 1.5 1013383
13:00+8з2383100 0.0 1013446
16:00+10з236999 0.0 1012967
19:00+10юв267416 0.0 1011338
22:00+9ююв3108184 0.0 1011353
25 апреля, вс
вс2501:00+9ююз3118617 0.0 1009433
04:00+7юз5118779 0.0 1010733
07:00+6зюз4107911 0.0 1012965
10:00+9зюз5964100 0.4 10131434
13:00+11зюз6104594 0.4 10132246
16:00+10з610564 0.8 10151160
19:00+9сз24625 0.0 1016422
22:00+7ю126724 0.0 101755
26 апреля, пн
пн2601:00+6з26745 0.0 1017177
04:00+4з25831 0.0 1018159
07:00+5з27695 0.0 1019264
10:00+10зсз353617 0.0 10191263
13:00+12зсз333068 0.0 10191652
16:00+13сз2230100 0.0 10181845
19:00+12св2238100 0.0 1017556
22:00+10в2443100 0.0 1016171